Overview Statistics Trail Chart Weather Telemetry Raw packets
 

This is the latest recevied weather packets stored in our database for station/object VO2AGO. If no packets are shown the sender has not sent any weather packets the latest 10 day(s).

<< 36 37 38 39 40 41 42 >>
Time Temp. Humidity Pressure Rain* Wind** Luminosity Snow
1777754601 4.44° C - - - 0 m/s 402 W/m² -
1777754151 4.44° C - - - 0 m/s 379 W/m² -
1777753701 4.44° C - - - 0 m/s 433 W/m² -
1777753251 4.44° C - - - 0 m/s 479 W/m² -
1777752800 4.44° C - - - 0 m/s 548 W/m² -
1777752351 5° C - - - 0 m/s 558 W/m² -
1777751900 5.56° C - - - 0 m/s 674 W/m² -
1777751451 5.56° C - - - 0 m/s 491 W/m² -
1777751001 5.56° C - - - 0 m/s 480 W/m² -
1777750551 6.67° C - - - 0 m/s 704 W/m² -
1777750102 7.78° C - - - 0 m/s 753 W/m² -
1777749650 8.33° C - - - 0 m/s 1412 W/m² -
1777749201 7.78° C - - - 0 m/s 1427 W/m² -
1777748751 7.22° C - - - 0 m/s 1982 W/m² -
1777748301 6.67° C - - - 0 m/s 1379 W/m² -
1777747851 6.11° C - - - 0 m/s 1316 W/m² -
1777747401 6.11° C - - - 0 m/s 1240 W/m² -
1777746950 6.11° C - - - 0 m/s 1248 W/m² -
1777746501 6.11° C - - - 0 m/s 1120 W/m² -
1777746051 5.56° C - - - 0 m/s 909 W/m² -
1777745601 6.11° C - - - 0 m/s 792 W/m² -
1777745151 6.67° C - - - 0 m/s 1139 W/m² -
1777744700 6.11° C - - - 0 m/s 1075 W/m² -
1777744250 6.67° C - - - 0 m/s 1324 W/m² -
1777743801 7.22° C - - - 0 m/s 1750 W/m² -

* Rain since midnight (hover to see other rain measurements)
** Current wind speed in m/s (hover to see current wind gust speed)